Date,TemperatureHighF,TemperatureAvgF,TemperatureLowF,DewpointHighF,DewpointAvgF,DewpointLowF,HumidityHigh,HumidityAvg,HumidityLow,PressureMaxIn,PressureMinIn,WindSpeedMaxMPH,WindSpeedAvgMPH,GustSpeedMaxMPH,PrecipitationSumIn
2013-4-1,85.7,76.1,71.8,-99.9,-99.9,-99.9,0,0,100,30.03,29.91,12,5,20,0.00
2013-4-2,83.2,74.2,66.4,-99.9,-99.9,-99.9,0,0,100,30.04,29.96,6,4,10,0.00
2013-4-3,83.8,76.7,72.0,-99.9,-99.9,-99.9,0,0,100,30.04,29.96,6,3,12,0.00
2013-4-4,83.6,75.9,69.6,-99.9,-99.9,-99.9,0,0,100,30.02,29.87,10,5,16,1.02
2013-4-5,73.7,69.0,65.8,-99.9,-99.9,-99.9,0,0,100,29.95,29.80,9,4,18,0.76
2013-4-6,79.0,69.4,59.2,-99.9,-99.9,-99.9,0,0,100,30.06,29.90,9,6,13,0.01
2013-4-7,81.1,74.0,70.9,-99.9,-99.9,-99.9,0,0,100,30.11,30.00,8,5,14,0.00
2013-4-8,82.4,74.7,65.3,-99.9,-99.9,-99.9,0,0,100,30.10,30.02,6,3,10,0.00
2013-4-9,83.2,76.4,73.0,-99.9,-99.9,-99.9,0,0,100,30.12,30.02,8,5,15,0.00
2013-4-10,85.1,78.3,73.9,-99.9,-99.9,-99.9,0,0,100,30.07,29.97,7,5,13,0.00
2013-4-11,84.1,78.6,75.4,-99.9,-99.9,-99.9,0,0,100,29.99,29.87,7,6,16,0.00
2013-4-12,87.0,79.5,77.4,-99.9,-99.9,-99.9,0,0,100,29.92,29.84,13,6,18,0.07
2013-4-13,82.4,77.1,73.9,-99.9,-99.9,-99.9,0,0,100,29.94,29.85,8,3,15,0.28
2013-4-14,86.5,79.6,73.2,-99.9,-99.9,-99.9,0,0,100,29.93,29.86,6,3,11,0.00
2013-4-15,87.0,77.7,71.1,-99.9,-99.9,-99.9,0,0,100,30.03,29.89,12,3,18,1.34
2013-4-16,87.4,77.9,70.6,-99.9,-99.9,-99.9,0,0,100,30.09,29.99,7,3,11,0.01
2013-4-17,84.7,78.8,75.1,-99.9,-99.9,-99.9,0,0,100,30.07,29.98,8,4,11,0.00
2013-4-18,87.2,80.2,76.0,-99.9,-99.9,-99.9,0,0,100,30.03,29.95,7,4,15,0.00
2013-4-19,87.6,81.6,77.9,-99.9,-99.9,-99.9,0,0,100,30.01,29.93,8,5,12,0.00
2013-4-20,87.4,78.5,72.7,-99.9,-99.9,-99.9,0,0,100,30.04,29.91,13,4,16,1.47
2013-4-21,85.3,77.9,72.7,-99.9,-99.9,-99.9,0,0,100,30.06,29.95,9,3,14,0.00
2013-4-22,83.4,74.9,69.3,-99.9,-99.9,-99.9,0,0,100,30.01,29.89,10,2,11,0.97
2013-4-23,83.6,75.1,67.4,-99.9,-99.9,-99.9,0,0,100,30.06,29.92,11,6,17,0.01
2013-4-24,83.8,77.6,72.8,-99.9,-99.9,-99.9,0,0,100,30.10,30.00,8,4,11,0.00
2013-4-25,83.0,76.4,71.6,-99.9,-99.9,-99.9,0,0,100,30.17,30.05,6,4,11,0.00
2013-4-26,83.6,76.5,70.8,-99.9,-99.9,-99.9,0,0,100,30.18,30.09,7,4,14,0.00
2013-4-27,84.3,77.4,72.8,-99.9,-99.9,-99.9,0,0,100,30.17,30.05,7,5,14,0.00
2013-4-28,84.9,77.5,73.3,-99.9,-99.9,-99.9,0,0,100,30.09,29.96,7,6,14,0.00
2013-4-29,84.3,78.0,74.7,-99.9,-99.9,-99.9,0,0,100,30.00,29.90,7,4,10,0.00
2013-4-30,82.8,76.8,71.5,-99.9,-99.9,-99.9,0,0,100,29.97,29.89,8,3,10,0.08